CHINASAT 6D (ZX 6D)

Last updated on Sat Jun 29 2024 00:02:41 GMT+0000 (Coordinated Universal Time)

1 52255U 22038A 24178.88744477 -.00000350 00000+0 00000+0 0 9992 2 52255 0.0329 269.9800 0000291 231.0581 218.9596 1.00267939 8208
UTC large
Height (km)
Speed (km/s)
/
Latitude / Longitude
Inclination (degrees)
Orbital Period (minutes)
Azimuth
Elevation
Range (km)
Doppler Factor

Next 0 passes for location: London (51.5072 / 0.1276)

Sorry there are no passes over London.